User: anonymous   Login
Location: Penticton
(49.5000°N, 119.5830°W)
Time: 15:11:44
(UTC-08:00)
Language:

NOSS 3-4 (A) - Orbit

View from above orbital plane
View from above orbital plane
View from above satellite
View from above satellite

Ground track
Ground track

The orbit data is extracted from the following two-line orbital elements,

1 31701U 07027A   17323.15773579 0.00000000  00000-0  00000-0 0    01
2 31701  63.4042  48.3183 0203000  23.1538 336.8461 13.40738978    08
Epoch (UTC): 19 November 2017 03:47:08
Eccentricity: 0.0203000
inclination: 63.4042°
perigee height: 954 km
apogee height: 1258 km
right ascension of ascending node: 48.3183°
argument of perigee: 23.1538°
revolutions per day: 13.40738978
mean anomaly at epoch: 336.8461°
orbit number at epoch: 0

The dashed part of the orbit path shows where the satellite is in the earth's shadow,  

DLR